Météo Nord-Pas-de-Calais   La météo au plus près de chez vous

Station météorologique

Observations météo à Tregunc (29293)

29293001 25 m Dernier relevé à 13:30
21.9°C
Humidité 55 % Vent 6.1 km/h

Journée consultée

Samedi 5 Septembre 2026

Synthèse de la journée

Périodes de référence en UTC

Température maximale

22.5°C

à 13:12

06h 06h

Température minimale

14°C

à 07:42

18h 18h

Rafale maximale

24 km/h

à 13:18

00h 00h

Précipitations

0 mm

Cumul quotidien

06h 06h

Graphiques de la journée

Heure locale Réduire

Données détaillées

Relevés météo

Pas de 6 minutes Afficher les relevés infra-horaires
Relevés météo détaillés à Tregunc pour le Samedi 5 Septembre 2026
Heure Température °C Point de rosée °C Humidité % Vent moyen (raf.), km/h Précipitations mm
13:30 21.9 °C 12.7 °C 56 % 15 km/h (23 km/h) 0 mm0 mm
13:24 21.9 °C 13 °C 57 % 16 km/h (24 km/h) 0 mm0 mm
13:18 22 °C 13.4 °C 58 % 15 km/h (24 km/h) 0 mm0 mm
13:12 22.5 °C 12.4 °C 53 % 13 km/h (19 km/h) 0 mm0 mm
13:06 21.9 °C 12.7 °C 56 % 14 km/h (22 km/h) 0 mm0 mm
13:00 21.6 °C 12.4 °C 56 % 14 km/h (22 km/h) 0 mm0 mm
12:54 21.7 °C 12.5 °C 56 % 15 km/h (23 km/h) 0 mm0 mm
12:48 21.3 °C 13 °C 59 % 15 km/h (23 km/h) 0 mm0 mm
12:42 21.3 °C 12.2 °C 56 % 14 km/h (22 km/h) 0 mm0 mm
12:36 21.4 °C 12.5 °C 57 % 12 km/h (22 km/h) 0 mm0 mm
12:30 21.5 °C 12.1 °C 55 % 6 km/h (15 km/h) 0 mm0 mm
12:24 22.2 °C 10.7 °C 48 % 4 km/h (13 km/h) 0 mm0 mm
12:18 22.4 °C 10.5 °C 47 % 5 km/h (13 km/h) 0 mm0 mm
12:12 22.1 °C 10.6 °C 48 % 8 km/h (19 km/h) 0 mm0 mm
12:06 22.1 °C 11.2 °C 50 % 8 km/h (19 km/h) 0 mm0 mm
12:00 21.9 °C 11.6 °C 52 % 8 km/h (17 km/h) 0 mm0 mm
11:54 21.9 °C 11.6 °C 52 % 7 km/h (17 km/h) 0 mm0 mm
11:48 21.8 °C 11.8 °C 53 % 6 km/h (16 km/h) 0 mm0 mm
11:42 21.7 °C 11.7 °C 53 % 7 km/h (16 km/h) 0 mm0 mm
11:36 21.8 °C 11.8 °C 53 % 6 km/h (13 km/h) 0 mm0 mm
11:30 21.2 °C 11.8 °C 55 % 8 km/h (17 km/h) 0 mm0 mm
11:24 21 °C 11.3 °C 54 % 11 km/h (19 km/h) 0 mm0 mm
11:18 21 °C 11.6 °C 55 % 12 km/h (19 km/h) 0 mm0 mm
11:12 21.1 °C 12 °C 56 % 11 km/h (17 km/h) 0 mm0 mm
11:06 20.7 °C 11.9 °C 57 % 11 km/h (18 km/h) 0 mm0 mm
11:00 20.7 °C 11.9 °C 57 % 11 km/h (19 km/h) 0 mm0 mm
10:54 20.6 °C 11.8 °C 57 % 10 km/h (15 km/h) 0 mm0 mm
10:48 20.5 °C 12.5 °C 60 % 9 km/h (17 km/h) 0 mm0 mm
10:42 19.8 °C 12.1 °C 61 % 11 km/h (19 km/h) 0 mm0 mm
10:36 19.4 °C 11.7 °C 61 % 12 km/h (19 km/h) 0 mm0 mm
10:30 19.4 °C 11.7 °C 61 % 10 km/h (19 km/h) 0 mm0 mm
10:24 19.2 °C 12 °C 63 % 10 km/h (18 km/h) 0 mm0 mm
10:18 18.7 °C 11.5 °C 63 % 10 km/h (17 km/h) 0 mm0 mm
10:12 19 °C 12.7 °C 67 % 9 km/h (17 km/h) 0 mm0 mm
10:06 18.7 °C 13.3 °C 71 % 8 km/h (14 km/h) 0 mm0 mm
10:00 18.4 °C 13 °C 71 % 8 km/h (13 km/h) 0 mm0 mm
09:54 18.2 °C 13.5 °C 74 % 9 km/h (15 km/h) 0 mm0 mm
09:48 17.9 °C 13.4 °C 75 % 8 km/h (14 km/h) 0 mm0 mm
09:42 17.6 °C 13.5 °C 77 % 7 km/h (13 km/h) 0 mm0 mm
09:36 17.2 °C 13.5 °C 79 % 7 km/h (13 km/h) 0 mm0 mm
09:30 16.9 °C 13.8 °C 82 % 6 km/h (11 km/h) 0 mm0 mm
09:24 16.5 °C 13.6 °C 83 % 5 km/h (9 km/h) 0 mm0 mm
09:18 16.4 °C 13.7 °C 84 % 5 km/h (9 km/h) 0 mm0 mm
09:12 16.1 °C 13.6 °C 85 % 6 km/h (10 km/h) 0 mm0 mm
09:06 15.9 °C 13.7 °C 87 % 5 km/h (8 km/h) 0 mm0 mm
09:00 15.6 °C 13.8 °C 89 % 4 km/h (8 km/h) 0 mm0 mm
08:54 15.3 °C 13.8 °C 91 % 4 km/h (7 km/h) 0 mm0 mm
08:48 15.1 °C 14 °C 93 % 4 km/h (6 km/h) 0 mm0 mm
08:42 14.7 °C 13.6 °C 93 % 4 km/h (5 km/h) 0 mm0 mm
08:36 14.5 °C 13.4 °C 93 % 4 km/h (6 km/h) 0 mm0 mm
08:30 14.4 °C 13.3 °C 93 % 4 km/h (7 km/h) 0 mm0 mm
08:24 14.4 °C 13.3 °C 93 % 5 km/h (8 km/h) 0 mm0 mm
08:18 14.4 °C 13.3 °C 93 % 4 km/h (7 km/h) 0 mm0 mm
08:12 14.4 °C 13.3 °C 93 % 4 km/h (6 km/h) 0 mm0 mm
08:06 14.3 °C 13.2 °C 93 % 3 km/h (6 km/h) 0 mm0 mm
08:00 14.2 °C 13.1 °C 93 % 3 km/h (6 km/h) 0 mm0 mm
07:54 14.2 °C 13.1 °C 93 % 4 km/h (9 km/h) 0 mm0 mm
07:48 14.2 °C 13.1 °C 93 % 5 km/h (9 km/h) 0 mm0 mm
07:42 14 °C 12.9 °C 93 % 4 km/h (7 km/h) 0 mm0 mm
07:36 14.1 °C 13 °C 93 % 3 km/h (6 km/h) 0 mm0 mm
07:30 14.2 °C 12.9 °C 92 % 3 km/h (6 km/h) 0 mm0 mm
07:24 14.3 °C 13 °C 92 % 4 km/h (7 km/h) 0 mm0 mm
07:18 14.4 °C 13.3 °C 93 % 5 km/h (9 km/h) 0 mm0 mm
07:12 14.4 °C 13.3 °C 93 % 5 km/h (9 km/h) 0 mm0 mm
07:06 14.3 °C 13.2 °C 93 % 4 km/h (6 km/h) 0 mm0 mm
07:00 14.1 °C 12.8 °C 92 % 4 km/h (6 km/h) 0 mm0 mm
06:54 14.5 °C 13.4 °C 93 % 5 km/h (8 km/h) 0 mm0 mm
06:48 14.5 °C 13.4 °C 93 % 5 km/h (8 km/h) 0 mm0 mm
06:42 14.5 °C 13.4 °C 93 % 5 km/h (8 km/h) 0 mm0 mm
06:36 14.5 °C 13.4 °C 93 % 5 km/h (7 km/h) 0 mm0 mm
06:30 14.5 °C 13.4 °C 93 % 5 km/h (8 km/h) 0 mm0 mm
06:24 14.6 °C 13.5 °C 93 % 5 km/h (8 km/h) 0 mm0 mm
06:18 14.6 °C 13.5 °C 93 % 4 km/h (6 km/h) 0 mm0 mm
06:12 14.7 °C 13.6 °C 93 % 4 km/h (5 km/h) 0 mm0 mm
06:06 14.7 °C 13.6 °C 93 % 4 km/h (7 km/h) 0 mm0 mm
06:00 14.6 °C 13.5 °C 93 % 3 km/h (7 km/h) 0 mm0 mm
05:54 14.5 °C 13.4 °C 93 % 3 km/h (5 km/h) 0 mm0 mm
05:48 14.7 °C 13.6 °C 93 % 3 km/h (6 km/h) 0 mm0 mm
05:42 14.8 °C 13.7 °C 93 % 5 km/h (8 km/h) 0 mm0 mm
05:36 14.8 °C 13.7 °C 93 % 5 km/h (7 km/h) 0 mm0 mm
05:30 14.8 °C 13.7 °C 93 % 4 km/h (6 km/h) 0 mm0 mm
05:24 14.8 °C 13.7 °C 93 % 5 km/h (6 km/h) 0 mm0 mm
05:18 14.8 °C 13.7 °C 93 % 5 km/h (6 km/h) 0 mm0 mm
05:12 14.8 °C 13.7 °C 93 % 5 km/h (6 km/h) 0 mm0 mm
05:06 14.7 °C 13.4 °C 92 % 5 km/h (6 km/h) 0 mm0 mm
05:00 14.9 °C 13.8 °C 93 % 5 km/h (6 km/h) 0 mm0 mm
04:54 14.9 °C 13.8 °C 93 % 5 km/h (7 km/h) 0 mm0 mm
04:48 14.9 °C 13.6 °C 92 % 6 km/h (8 km/h) 0 mm0 mm
04:42 15 °C 13.7 °C 92 % 6 km/h (8 km/h) 0 mm0 mm
04:36 15 °C 13.9 °C 93 % 6 km/h (8 km/h) 0 mm0 mm
04:30 15 °C 13.9 °C 93 % 5 km/h (8 km/h) 0 mm0 mm
04:24 15 °C 13.9 °C 93 % 4 km/h (6 km/h) 0 mm0 mm
04:18 15 °C 14 °C 94 % 5 km/h (6 km/h) 0 mm0 mm
04:12 14.9 °C 13.9 °C 94 % 4 km/h (6 km/h) 0 mm0 mm
04:06 14.7 °C 13.6 °C 93 % 2 km/h (4 km/h) 0 mm0 mm
04:00 14.7 °C 13.6 °C 93 % 0 km/h (5 km/h) 0 mm0 mm
03:54 14.7 °C 13.4 °C 92 % 3 km/h (6 km/h) 0 mm0 mm
03:48 15 °C 13.7 °C 92 % 3 km/h (6 km/h) 0 mm0 mm
03:42 15.1 °C 13.6 °C 91 % 0 km/h (3 km/h) 0 mm0 mm
03:36 15.2 °C 13.6 °C 90 % 0 km/h (3 km/h) 0 mm0 mm
03:30 15.3 °C 13.7 °C 90 % 0 km/h (2 km/h) 0 mm0 mm
03:24 15.5 °C 13.9 °C 90 % 0 km/h (0 km/h) 0 mm0 mm
03:18 15.5 °C 13.7 °C 89 % 0 km/h (0 km/h) 0 mm0 mm
03:12 15.6 °C 13.8 °C 89 % 0 km/h (0 km/h) 0 mm0 mm
03:06 15.7 °C 13.7 °C 88 % 0 km/h (0 km/h) 0 mm0 mm
03:00 15.8 °C 13.6 °C 87 % 0 km/h (0 km/h) 0 mm0 mm
02:54 15.9 °C 13.7 °C 87 % 0 km/h (0 km/h) 0 mm0 mm
02:48 16.1 °C 13.9 °C 87 % 0 km/h (0 km/h) 0 mm0 mm
02:42 16.2 °C 13.9 °C 86 % 0 km/h (4 km/h) 0 mm0 mm
02:36 16.5 °C 13.8 °C 84 % 2 km/h (4 km/h) 0 mm0 mm
02:30 16.7 °C 13.8 °C 83 % 3 km/h (6 km/h) 0 mm0 mm
02:24 16.8 °C 13.9 °C 83 % 4 km/h (9 km/h) 0 mm0 mm
02:18 16.8 °C 13.9 °C 83 % 4 km/h (9 km/h) 0 mm0 mm
02:12 16.9 °C 13.8 °C 82 % 4 km/h (9 km/h) 0 mm0 mm
02:06 17 °C 13.9 °C 82 % 5 km/h (10 km/h) 0 mm0 mm
02:00 17.1 °C 14 °C 82 % 5 km/h (10 km/h) 0 mm0 mm
01:54 17.1 °C 14 °C 82 % 6 km/h (12 km/h) 0 mm0 mm
01:48 17.1 °C 14.2 °C 83 % 7 km/h (14 km/h) 0 mm0 mm
01:42 17.2 °C 14.5 °C 84 % 8 km/h (14 km/h) 0 mm0 mm
01:36 17.2 °C 14.7 °C 85 % 7 km/h (12 km/h) 0 mm0 mm
01:30 17.3 °C 14.8 °C 85 % 8 km/h (12 km/h) 0 mm0 mm
01:24 17.3 °C 14.8 °C 85 % 9 km/h (13 km/h) 0 mm0 mm
01:18 17.4 °C 14.9 °C 85 % 9 km/h (14 km/h) 0 mm0 mm
01:12 17.4 °C 14.9 °C 85 % 8 km/h (14 km/h) 0 mm0 mm
01:06 17.5 °C 14.9 °C 85 % 8 km/h (13 km/h) 0 mm0 mm
01:00 17.6 °C 15 °C 85 % 9 km/h (14 km/h) 0 mm0 mm
00:54 17.6 °C 15 °C 85 % 9 km/h (14 km/h) 0 mm0 mm
00:48 17.7 °C 15 °C 84 % 7 km/h (12 km/h) 0 mm0 mm
00:42 17.7 °C 15 °C 84 % 6 km/h (11 km/h) 0 mm0 mm
00:36 17.8 °C 15.1 °C 84 % 6 km/h (10 km/h) 0 mm0 mm
00:30 17.8 °C 15.1 °C 84 % 5 km/h (10 km/h) 0 mm0 mm
00:24 17.9 °C 15.2 °C 84 % 5 km/h (9 km/h) 0 mm0 mm
00:18 18 °C 15.1 °C 83 % 5 km/h (10 km/h) 0 mm0 mm
00:12 18.1 °C 15.2 °C 83 % 6 km/h (10 km/h) 0 mm0 mm
00:06 18.2 °C 15.1 °C 82 % 5 km/h (10 km/h) 0 mm0 mm
00:00 18.2 °C 15.1 °C 82 % 6 km/h (10 km/h) 0 mm0 mm

Données via Météo-France

Relevés météo à Tregunc

Cette page rassemble les observations de la station de Tregunc : température, humidité, vent, précipitations et pression atmosphérique. Les graphiques facilitent le suivi de la journée, tandis que le tableau donne accès aux mesures horaires et infra-horaires disponibles.

Pour replacer ces mesures dans leur contexte, consultez la climatologie de Tregunc ainsi que ses normales et records. Retrouvez aussi la carte des observations météo en temps réel.